Location: Bush Observatory
(40.2653°N, 94.3194°W)
Time: 17:13:21
(UTC-05:00)

Iridium 13 - Visible Passes

Search period start: 30 August 2014 00:00
Search period end: 09 September 2014 00:00
Orbit: 776 x 779 km, 86.4° (Epoch: 30 August)

Date Brightness Start Highest point End Pass type
(mag) Time Alt. Az. Time Alt. Az. Time Alt. Az.
31 Aug 6.8 06:04:12 10° SSE 06:09:09 47° E 06:14:08 10° NNE visible
01 Sep 7.9 05:31:37 10° SE 05:35:50 26° E 05:40:03 10° NNE visible
02 Sep 8.6 05:00:03 10° ESE 05:02:38 14° ENE 05:05:13 10° NE visible
03 Sep 6.0 06:04:02 10° S 06:09:11 69° E 06:14:22 10° N visible
04 Sep 7.2 05:31:04 10° SSE 05:35:48 37° E 05:40:32 10° NNE visible
05 Sep 8.2 04:58:48 10° SE 05:02:31 20° E 05:06:15 10° NE visible
06 Sep 8.7 04:28:19 10° E 04:29:22 11° ENE 04:30:25 10° ENE visible
06 Sep 5.5 06:04:04 10° S 06:09:16 83° W 06:14:30 10° N visible
07 Sep 6.4 05:30:46 10° SSE 05:35:48 53° E 05:40:52 10° NNE visible
08 Sep 7.5 04:58:02 10° SE 05:02:27 29° E 05:06:52 10° NNE visible
